Powrót do katalogu

ARIANE 2 DEB

LostGTO
NORAD 33548·DEBRIS·🇫🇷 France

Wystrzelony Jan 27, 1989 z Guiana Space Centre

Loading…

TLE

NieaktualneSource: Space-Track

Epoka: Mar 31, 2026, 22:58 UTC

1 33548U 89006AQ  26090.95758424 -.00000247  00000-0  00000-0 0  9991
2 33548  10.1113  13.8563 6924200 197.3047 115.4206  2.22279927166275

Śledź ARIANE 2 DEB w czasie rzeczywistym z AllMySat

Download on the App Store